Time,TemperatureF,DewpointF,PressureIn,WindDirection,WindDirectionDegrees,WindSpeedMPH,WindSpeedGustMPH,Humidity,HourlyPrecipIn,Conditions,Clouds,dailyrainin,SoftwareType,DateUTC
2013-07-25 00:03:00,61.5,53.9,30.00,NNE,28,5.0,5.0,76,0.00,CLR,,0.00,WeatherDisplay:10.37,2013-07-25 05:03:00,
2013-07-25 00:08:00,61.4,53.8,30.00,NNE,23,5.8,5.8,76,0.00,CLR,,0.00,WeatherDisplay:10.37,2013-07-25 05:08:00,
2013-07-25 00:13:00,61.2,53.6,30.00,NNE,24,4.6,4.6,76,0.00,CLR,,0.00,WeatherDisplay:10.37,2013-07-25 05:13:00,
2013-07-25 00:18:00,60.9,53.6,29.99,NNE,23,3.5,3.5,77,0.00,CLR,,0.00,WeatherDisplay:10.37,2013-07-25 05:18:00,
2013-07-25 00:23:00,60.7,53.4,29.99,NNE,23,5.8,5.8,77,0.00,CLR,,0.00,WeatherDisplay:10.37,2013-07-25 05:23:00,
2013-07-25 00:28:00,60.4,53.5,29.99,NNE,22,5.8,5.8,78,0.00,CLR,,0.00,WeatherDisplay:10.37,2013-07-25 05:28:00,
2013-07-25 00:33:00,60.2,53.7,29.99,NNE,22,4.6,4.6,79,0.00,CLR,,0.00,WeatherDisplay:10.37,2013-07-25 05:33:00,
2013-07-25 00:38:00,59.9,53.4,29.99,NNE,22,4.0,4.0,79,0.00,CLR,,0.00,WeatherDisplay:10.37,2013-07-25 05:38:00,
2013-07-25 00:43:00,59.7,53.5,29.99,NNE,22,3.5,3.5,80,0.00,CLR,,0.00,WeatherDisplay:10.37,2013-07-25 05:43:00,
2013-07-25 00:48:00,59.6,53.4,29.99,NNE,22,4.0,4.0,80,0.00,CLR,,0.00,WeatherDisplay:10.37,2013-07-25 05:48:00,
2013-07-25 00:53:00,59.5,53.3,29.99,NNE,22,3.5,3.5,80,0.00,CLR,,0.00,WeatherDisplay:10.37,2013-07-25 05:53:00,
2013-07-25 00:58:00,59.5,53.3,29.99,NNE,22,5.8,5.8,80,0.00,CLR,,0.00,WeatherDisplay:10.37,2013-07-25 05:58:00,
2013-07-25 01:03:00,59.4,53.6,29.99,NNE,22,3.5,3.5,81,0.00,CLR,,0.00,WeatherDisplay:10.37,2013-07-25 06:03:00,
2013-07-25 01:08:00,59.3,53.5,29.99,NNE,22,3.5,3.5,81,0.00,CLR,,0.00,WeatherDisplay:10.37,2013-07-25 06:08:00,
2013-07-25 01:13:00,59.2,53.4,29.99,NNE,22,3.5,3.5,81,0.00,CLR,,0.00,WeatherDisplay:10.37,2013-07-25 06:13:00,
2013-07-25 01:18:00,59.1,53.3,29.99,NNE,22,5.8,5.8,81,0.00,CLR,,0.00,WeatherDisplay:10.37,2013-07-25 06:18:00,
2013-07-25 01:23:00,59.1,53.6,29.99,NE,37,5.8,5.8,82,0.00,CLR,,0.00,WeatherDisplay:10.37,2013-07-25 06:23:00,
2013-07-25 01:28:00,59.0,53.5,29.98,NE,40,5.8,5.8,82,0.00,CLR,,0.00,WeatherDisplay:10.37,2013-07-25 06:28:00,
2013-07-25 01:33:00,59.1,53.6,29.99,NE,39,6.0,6.0,82,0.00,CLR,,0.00,WeatherDisplay:10.37,2013-07-25 06:33:00,
2013-07-25 01:38:00,59.1,53.6,29.99,NE,38,3.5,3.5,82,0.00,CLR,,0.00,WeatherDisplay:10.37,2013-07-25 06:38:00,
2013-07-25 01:43:00,59.1,53.6,29.99,NE,38,5.0,5.0,82,0.00,CLR,,0.00,WeatherDisplay:10.37,2013-07-25 06:43:00,
2013-07-25 01:48:00,59.1,53.6,29.99,NE,39,4.6,4.6,82,0.00,CLR,,0.00,WeatherDisplay:10.37,2013-07-25 06:48:00,
2013-07-25 01:53:00,59.1,53.6,29.99,NE,38,4.6,4.6,82,0.00,CLR,,0.00,WeatherDisplay:10.37,2013-07-25 06:53:00,
2013-07-25 01:58:00,59.0,53.5,29.98,NE,38,4.6,4.6,82,0.00,CLR,,0.00,WeatherDisplay:10.37,2013-07-25 06:58:00,
2013-07-25 02:03:00,59.0,53.5,29.98,NE,38,5.8,5.8,82,0.00,CLR,,0.00,WeatherDisplay:10.37,2013-07-25 07:03:00,
2013-07-25 02:08:00,59.0,53.5,29.98,NE,38,4.6,4.6,82,0.00,CLR,,0.00,WeatherDisplay:10.37,2013-07-25 07:08:00,
2013-07-25 02:13:00,58.9,53.4,29.99,NE,38,3.5,3.5,82,0.00,CLR,,0.00,WeatherDisplay:10.37,2013-07-25 07:13:00,
2013-07-25 02:18:00,58.9,53.4,29.99,NE,38,4.6,4.6,82,0.00,CLR,,0.00,WeatherDisplay:10.37,2013-07-25 07:18:00,
2013-07-25 02:23:00,58.8,53.3,29.99,NE,38,3.5,3.5,82,0.00,CLR,,0.00,WeatherDisplay:10.37,2013-07-25 07:23:00,
2013-07-25 02:28:00,58.8,53.3,29.99,NE,38,3.5,3.5,82,0.00,CLR,,0.00,WeatherDisplay:10.37,2013-07-25 07:28:00,
2013-07-25 02:33:00,58.8,53.3,29.99,NE,38,2.3,2.3,82,0.00,CLR,,0.00,WeatherDisplay:10.37,2013-07-25 07:33:00,
2013-07-25 02:38:00,58.7,53.2,29.99,NE,37,4.6,4.6,82,0.00,CLR,,0.00,WeatherDisplay:10.37,2013-07-25 07:38:00,
2013-07-25 02:43:00,58.7,53.2,29.99,NE,38,3.5,3.5,82,0.00,CLR,,0.00,WeatherDisplay:10.37,2013-07-25 07:43:00,
2013-07-25 02:48:00,58.7,53.2,29.99,NE,37,2.0,2.0,82,0.00,CLR,,0.00,WeatherDisplay:10.37,2013-07-25 07:48:00,
2013-07-25 02:53:00,58.6,53.1,29.99,NE,37,3.0,3.0,82,0.00,CLR,,0.00,WeatherDisplay:10.37,2013-07-25 07:53:00,
2013-07-25 02:58:00,58.5,53.0,29.99,NE,38,1.2,1.2,82,0.00,CLR,,0.00,WeatherDisplay:10.37,2013-07-25 07:58:00,
2013-07-25 03:03:00,58.4,53.3,29.99,NE,37,2.3,2.3,83,0.00,CLR,,0.00,WeatherDisplay:10.37,2013-07-25 08:03:00,
2013-07-25 03:08:00,58.3,53.2,29.99,NE,38,3.5,3.5,83,0.00,CLR,,0.00,WeatherDisplay:10.37,2013-07-25 08:08:00,
2013-07-25 03:13:00,58.2,53.1,29.99,NE,38,3.5,3.5,83,0.00,CLR,,0.00,WeatherDisplay:10.37,2013-07-25 08:13:00,
2013-07-25 03:18:00,58.1,53.0,29.99,NE,38,2.3,2.3,83,0.00,CLR,,0.00,WeatherDisplay:10.37,2013-07-25 08:18:00,
2013-07-25 03:23:00,58.1,53.0,29.99,NE,37,2.3,2.3,83,0.00,CLR,,0.00,WeatherDisplay:10.37,2013-07-25 08:23:00,
2013-07-25 03:28:00,58.1,53.3,29.99,NE,37,3.5,3.5,84,0.00,CLR,,0.00,WeatherDisplay:10.37,2013-07-25 08:28:00,
2013-07-25 03:33:00,58.1,53.0,29.99,NE,38,4.6,4.6,83,0.00,CLR,,0.00,WeatherDisplay:10.37,2013-07-25 08:33:00,
2013-07-25 03:38:00,57.9,53.1,29.99,NE,37,3.5,3.5,84,0.00,CLR,,0.00,WeatherDisplay:10.37,2013-07-25 08:38:00,
2013-07-25 03:43:00,57.9,53.1,29.99,NE,38,3.5,3.5,84,0.00,CLR,,0.00,WeatherDisplay:10.37,2013-07-25 08:43:00,
2013-07-25 03:48:00,57.8,53.0,29.99,NE,38,4.6,4.6,84,0.00,CLR,,0.00,WeatherDisplay:10.37,2013-07-25 08:48:00,
2013-07-25 03:53:00,57.8,53.0,29.99,NE,37,4.6,4.6,84,0.00,CLR,,0.00,WeatherDisplay:10.37,2013-07-25 08:53:00,
2013-07-25 03:58:00,57.7,52.9,29.99,NE,37,3.5,3.5,84,0.00,CLR,,0.00,WeatherDisplay:10.37,2013-07-25 08:58:00,
2013-07-25 04:03:00,57.6,52.8,30.00,NE,37,3.5,3.5,84,0.00,CLR,,0.00,WeatherDisplay:10.37,2013-07-25 09:03:00,
2013-07-25 04:08:00,57.6,53.1,30.00,NE,38,3.5,3.5,85,0.00,CLR,,0.00,WeatherDisplay:10.37,2013-07-25 09:08:00,
2013-07-25 04:13:00,57.6,52.8,30.00,NE,37,3.5,3.5,84,0.00,CLR,,0.00,WeatherDisplay:10.37,2013-07-25 09:13:00,
2013-07-25 04:18:00,57.5,52.7,30.00,NE,38,2.3,2.3,84,0.00,CLR,,0.00,WeatherDisplay:10.37,2013-07-25 09:18:00,
2013-07-25 04:23:00,57.5,53.0,30.00,NE,37,4.0,4.0,85,0.00,CLR,,0.00,WeatherDisplay:10.37,2013-07-25 09:23:00,
2013-07-25 04:28:00,57.5,53.0,30.00,NE,38,3.5,3.5,85,0.00,CLR,,0.00,WeatherDisplay:10.37,2013-07-25 09:28:00,
2013-07-25 04:33:00,57.4,52.9,30.00,NE,37,4.0,4.0,85,0.00,CLR,,0.00,WeatherDisplay:10.37,2013-07-25 09:33:00,
2013-07-25 04:38:00,57.3,52.8,30.00,NE,38,3.5,3.5,85,0.00,CLR,,0.00,WeatherDisplay:10.37,2013-07-25 09:38:00,
2013-07-25 04:43:00,57.1,52.6,30.00,NE,38,4.6,4.6,85,0.00,CLR,,0.00,WeatherDisplay:10.37,2013-07-25 09:43:00,
2013-07-25 04:48:00,56.9,52.4,30.01,NE,38,3.5,3.5,85,0.00,CLR,,0.00,WeatherDisplay:10.37,2013-07-25 09:48:00,
2013-07-25 04:53:00,56.8,52.7,30.01,NE,37,3.5,3.5,86,0.00,CLR,,0.00,WeatherDisplay:10.37,2013-07-25 09:53:00,
2013-07-25 04:58:00,56.9,52.8,30.01,NE,38,3.5,3.5,86,0.00,CLR,,0.00,WeatherDisplay:10.37,2013-07-25 09:58:00,
2013-07-25 05:03:00,56.8,52.7,30.01,NE,38,3.5,3.5,86,0.00,CLR,,0.00,WeatherDisplay:10.37,2013-07-25 10:03:00,
2013-07-25 05:08:00,56.8,52.7,30.01,NE,37,3.5,3.6,86,0.00,CLR,,0.00,WeatherDisplay:10.37,2013-07-25 10:08:00,
2013-07-25 05:13:00,56.8,52.7,30.01,NE,37,3.5,3.5,86,0.00,CLR,,0.00,WeatherDisplay:10.37,2013-07-25 10:13:00,
2013-07-25 05:18:00,56.8,52.7,30.01,NE,38,3.5,3.5,86,0.00,CLR,,0.00,WeatherDisplay:10.37,2013-07-25 10:18:00,
2013-07-25 05:23:00,56.9,52.8,30.01,NE,37,2.3,2.3,86,0.00,CLR,,0.00,WeatherDisplay:10.37,2013-07-25 10:23:00,
2013-07-25 05:28:00,57.0,52.9,30.01,NE,38,2.3,2.3,86,0.00,CLR,,0.00,WeatherDisplay:10.37,2013-07-25 10:28:00,
2013-07-25 05:33:00,57.0,52.9,30.01,NE,38,2.3,2.3,86,0.00,CLR,,0.00,WeatherDisplay:10.37,2013-07-25 10:33:00,
2013-07-25 05:38:00,57.0,52.9,30.01,NE,38,3.0,3.0,86,0.00,CLR,,0.00,WeatherDisplay:10.37,2013-07-25 10:38:00,
2013-07-25 05:43:00,57.0,52.9,30.02,NE,37,3.5,3.5,86,0.00,CLR,,0.00,WeatherDisplay:10.37,2013-07-25 10:43:00,
2013-07-25 05:48:00,57.0,52.9,30.01,NE,38,3.5,3.5,86,0.00,CLR,,0.00,WeatherDisplay:10.37,2013-07-25 10:48:00,
2013-07-25 05:53:00,57.0,52.9,30.02,NE,37,3.5,3.5,86,0.00,CLR,,0.00,WeatherDisplay:10.37,2013-07-25 10:53:00,
2013-07-25 05:58:00,57.0,53.2,30.02,NE,37,3.5,3.5,87,0.00,CLR,,0.00,WeatherDisplay:10.37,2013-07-25 10:58:00,
2013-07-25 06:03:00,56.9,53.1,30.02,NE,38,3.0,3.0,87,0.00,CLR,,0.00,WeatherDisplay:10.37,2013-07-25 11:03:00,
2013-07-25 06:08:00,57.1,53.3,30.01,NE,37,3.5,3.5,87,0.00,CLR,,0.00,WeatherDisplay:10.37,2013-07-25 11:08:00,
2013-07-25 06:13:00,57.2,53.7,30.01,NE,38,1.2,1.2,88,0.00,CLR,,0.00,WeatherDisplay:10.37,2013-07-25 11:13:00,
2013-07-25 06:18:00,57.2,53.4,30.01,NE,38,2.3,2.3,87,0.00,CLR,,0.00,WeatherDisplay:10.37,2013-07-25 11:18:00,
2013-07-25 06:23:00,57.3,53.5,30.02,NE,38,3.5,3.5,87,0.00,CLR,,0.00,WeatherDisplay:10.37,2013-07-25 11:23:00,
2013-07-25 06:28:00,57.4,53.6,30.02,NE,38,3.5,3.5,87,0.00,CLR,,0.00,WeatherDisplay:10.37,2013-07-25 11:28:00,
2013-07-25 06:33:00,57.5,53.3,30.03,NE,37,4.6,4.6,86,0.00,CLR,,0.00,WeatherDisplay:10.37,2013-07-25 11:33:00,
2013-07-25 06:38:00,57.7,53.9,30.03,NE,37,3.5,3.5,87,0.00,CLR,,0.00,WeatherDisplay:10.37,2013-07-25 11:38:00,
2013-07-25 06:43:00,58.0,54.2,30.03,NE,37,1.0,1.0,87,0.00,CLR,,0.00,WeatherDisplay:10.37,2013-07-25 11:43:00,
2013-07-25 06:48:00,58.2,54.3,30.03,NE,38,2.3,2.3,87,0.00,CLR,,0.00,WeatherDisplay:10.37,2013-07-25 11:48:00,
2013-07-25 06:53:00,58.5,54.6,30.02,NE,37,2.0,2.0,87,0.00,CLR,,0.00,WeatherDisplay:10.37,2013-07-25 11:53:00,
2013-07-25 06:58:00,59.0,54.8,30.02,NE,38,3.5,3.5,86,0.00,CLR,,0.00,WeatherDisplay:10.37,2013-07-25 11:58:00,
2013-07-25 07:03:00,59.1,54.6,30.02,NE,37,3.5,3.5,85,0.00,CLR,,0.00,WeatherDisplay:10.37,2013-07-25 12:03:00,
2013-07-25 07:08:00,59.0,54.2,30.02,NE,37,3.5,3.5,84,0.00,CLR,,0.00,WeatherDisplay:10.37,2013-07-25 12:08:00,
2013-07-25 07:13:00,58.9,54.1,30.02,NE,38,3.5,3.5,84,0.00,CLR,,0.00,WeatherDisplay:10.37,2013-07-25 12:13:00,
2013-07-25 07:18:00,59.1,54.3,30.03,NE,37,1.2,0.0,84,0.00,CLR,,0.00,WeatherDisplay:10.37,2013-07-25 12:18:00,
2013-07-25 07:23:00,59.4,54.6,30.03,NE,36,3.5,3.5,84,0.00,CLR,,0.00,WeatherDisplay:10.37,2013-07-25 12:23:00,
2013-07-25 07:28:00,59.6,54.4,30.03,NE,36,1.2,0.0,83,0.00,CLR,,0.00,WeatherDisplay:10.37,2013-07-25 12:28:00,
2013-07-25 07:33:00,60.0,54.8,30.03,NE,37,1.0,0.0,83,0.00,CLR,,0.00,WeatherDisplay:10.37,2013-07-25 12:33:00,
2013-07-25 07:38:00,60.7,55.2,30.03,NE,37,2.3,2.3,82,0.00,CLR,,0.00,WeatherDisplay:10.37,2013-07-25 12:38:00,
2013-07-25 07:43:00,61.2,55.3,30.03,NE,36,3.5,3.5,81,0.00,CLR,,0.00,WeatherDisplay:10.37,2013-07-25 12:43:00,
2013-07-25 07:48:00,61.3,55.4,30.03,NE,36,2.3,2.3,81,0.00,CLR,,0.00,WeatherDisplay:10.37,2013-07-25 12:48:00,
2013-07-25 07:53:00,61.7,55.5,30.03,NE,36,3.5,3.5,80,0.00,CLR,,0.00,WeatherDisplay:10.37,2013-07-25 12:53:00,
2013-07-25 07:58:00,61.7,55.5,30.04,NE,37,3.5,3.5,80,0.00,CLR,,0.00,WeatherDisplay:10.37,2013-07-25 12:58:00,
2013-07-25 08:03:00,62.0,55.8,30.04,NE,37,3.0,3.0,80,0.00,CLR,,0.00,WeatherDisplay:10.37,2013-07-25 13:03:00,
2013-07-25 08:08:00,62.5,56.2,30.04,NE,37,3.5,3.5,80,0.00,CLR,,0.00,WeatherDisplay:10.37,2013-07-25 13:08:00,
2013-07-25 08:13:00,62.7,56.1,30.04,NE,37,3.5,3.5,79,0.00,CLR,,0.00,WeatherDisplay:10.37,2013-07-25 13:13:00,
2013-07-25 08:18:00,63.0,56.4,30.04,NE,36,4.0,4.0,79,0.00,CLR,,0.00,WeatherDisplay:10.37,2013-07-25 13:18:00,
2013-07-25 08:23:00,63.1,56.1,30.05,NE,37,4.0,4.0,78,0.00,CLR,,0.00,WeatherDisplay:10.37,2013-07-25 13:23:00,
2013-07-25 08:28:00,63.4,56.4,30.05,NE,37,3.5,3.5,78,0.00,CLR,,0.00,WeatherDisplay:10.37,2013-07-25 13:28:00,
2013-07-25 08:33:00,63.6,56.3,30.06,NE,37,2.3,2.3,77,0.00,CLR,,0.00,WeatherDisplay:10.37,2013-07-25 13:33:00,
2013-07-25 08:38:00,63.9,56.5,30.06,NE,35,5.0,5.0,77,0.00,CLR,,0.00,WeatherDisplay:10.37,2013-07-25 13:38:00,
2013-07-25 08:43:00,64.1,56.7,30.06,NE,34,3.5,3.5,77,0.00,CLR,,0.00,WeatherDisplay:10.37,2013-07-25 13:43:00,
2013-07-25 08:48:00,64.4,57.0,30.06,NNE,33,2.3,2.3,77,0.00,CLR,,0.00,WeatherDisplay:10.37,2013-07-25 13:48:00,
2013-07-25 08:53:00,64.8,57.1,30.06,NE,34,3.5,3.5,76,0.00,CLR,,0.00,WeatherDisplay:10.37,2013-07-25 13:53:00,
2013-07-25 08:58:00,65.2,57.4,30.06,NE,34,3.0,3.0,76,0.00,CLR,,0.00,WeatherDisplay:10.37,2013-07-25 13:58:00,
2013-07-25 09:03:00,65.5,57.4,30.06,NE,34,0.0,0.0,75,0.00,CLR,,0.00,WeatherDisplay:10.37,2013-07-25 14:03:00,
2013-07-25 09:08:00,66.2,57.7,30.05,NNE,33,1.2,1.2,74,0.00,CLR,,0.00,WeatherDisplay:10.37,2013-07-25 14:08:00,
2013-07-25 09:13:00,66.9,58.0,30.05,NNE,33,1.2,0.0,73,0.00,CLR,,0.00,WeatherDisplay:10.37,2013-07-25 14:13:00,
2013-07-25 09:18:00,67.7,58.0,30.05,NE,34,2.3,2.3,71,0.00,CLR,,0.00,WeatherDisplay:10.37,2013-07-25 14:18:00,
2013-07-25 09:23:00,68.2,58.0,30.05,NE,34,0.0,0.0,70,0.00,CLR,,0.00,WeatherDisplay:10.37,2013-07-25 14:23:00,
2013-07-25 09:28:00,68.6,58.0,30.05,NE,35,3.5,3.5,69,0.00,CLR,,0.00,WeatherDisplay:10.37,2013-07-25 14:28:00,
2013-07-25 09:33:00,68.8,57.8,30.05,NE,34,3.5,3.5,68,0.00,CLR,,0.00,WeatherDisplay:10.37,2013-07-25 14:33:00,
2013-07-25 09:38:00,69.1,58.5,30.04,NE,34,1.2,1.2,69,0.00,CLR,,0.00,WeatherDisplay:10.37,2013-07-25 14:38:00,
2013-07-25 09:43:00,69.3,58.3,30.04,NE,35,2.3,2.3,68,0.00,CLR,,0.00,WeatherDisplay:10.37,2013-07-25 14:43:00,
2013-07-25 09:48:00,69.7,58.3,30.04,NE,35,3.5,3.5,67,0.00,CLR,,0.00,WeatherDisplay:10.37,2013-07-25 14:48:00,
2013-07-25 09:53:00,70.3,58.8,30.05,NNE,29,3.5,3.5,67,0.00,CLR,,0.00,WeatherDisplay:10.37,2013-07-25 14:53:00,
2013-07-25 09:58:00,70.9,59.0,30.05,NNE,29,3.5,3.5,66,0.00,CLR,,0.00,WeatherDisplay:10.37,2013-07-25 14:58:00,
2013-07-25 10:03:00,71.3,58.9,30.05,NNE,29,1.2,1.2,65,0.00,CLR,,0.00,WeatherDisplay:10.37,2013-07-25 15:03:00,
2013-07-25 10:08:00,71.7,58.4,30.05,NNE,30,3.5,3.5,63,0.00,CLR,,0.00,WeatherDisplay:10.37,2013-07-25 15:08:00,
2013-07-25 10:13:00,71.6,58.3,30.05,NNE,17,3.0,3.0,63,0.00,CLR,,0.00,WeatherDisplay:10.37,2013-07-25 15:13:00,
2013-07-25 10:18:00,71.9,58.2,30.05,NNE,18,3.5,3.5,62,0.00,CLR,,0.00,WeatherDisplay:10.37,2013-07-25 15:18:00,
2013-07-25 10:23:00,72.2,58.0,30.05,NNE,17,2.3,2.3,61,0.00,CLR,,0.00,WeatherDisplay:10.37,2013-07-25 15:23:00,
2013-07-25 10:28:00,72.4,57.7,30.05,NNE,15,5.0,5.0,60,0.00,CLR,,0.00,WeatherDisplay:10.37,2013-07-25 15:28:00,
2013-07-25 10:33:00,72.4,57.7,30.05,NNE,15,3.5,3.5,60,0.00,CLR,,0.00,WeatherDisplay:10.37,2013-07-25 15:33:00,
2013-07-25 10:38:00,72.1,57.4,30.05,North,5,2.3,0.0,60,0.00,CLR,,0.00,WeatherDisplay:10.37,2013-07-25 15:38:00,
2013-07-25 10:43:00,71.4,57.2,30.06,NW,323,3.5,3.5,61,0.00,CLR,,0.00,WeatherDisplay:10.37,2013-07-25 15:43:00,
2013-07-25 10:48:00,71.3,57.6,30.05,NW,323,2.0,2.0,62,0.00,CLR,,0.00,WeatherDisplay:10.37,2013-07-25 15:48:00,
2013-07-25 10:53:00,71.5,57.3,30.05,NW,323,2.3,2.3,61,0.00,CLR,,0.00,WeatherDisplay:10.37,2013-07-25 15:53:00,
2013-07-25 10:58:00,71.6,57.4,30.05,NW,322,0.0,0.0,61,0.00,CLR,,0.00,WeatherDisplay:10.37,2013-07-25 15:58:00,
2013-07-25 11:03:00,71.6,57.4,30.05,NW,322,2.3,2.3,61,0.00,CLR,,0.00,WeatherDisplay:10.37,2013-07-25 16:03:00,
2013-07-25 11:09:00,71.6,57.4,30.05,NW,321,3.5,3.5,61,0.00,CLR,,0.00,WeatherDisplay:10.37,2013-07-25 16:09:00,
2013-07-25 11:14:00,71.4,57.2,30.06,NW,319,5.8,5.8,61,0.00,CLR,,0.00,WeatherDisplay:10.37,2013-07-25 16:14:00,
2013-07-25 11:19:00,71.4,57.7,30.06,NW,317,4.6,4.6,62,0.00,CLR,,0.00,WeatherDisplay:10.37,2013-07-25 16:19:00,
2013-07-25 11:24:00,71.8,57.6,30.06,WNW,301,5.8,5.8,61,0.00,CLR,,0.00,WeatherDisplay:10.37,2013-07-25 16:24:00,
2013-07-25 11:29:00,72.5,57.8,30.06,WNW,290,6.9,6.9,60,0.00,CLR,,0.00,WeatherDisplay:10.37,2013-07-25 16:29:00,
2013-07-25 11:34:00,72.2,57.1,30.06,WNW,288,4.6,4.6,59,0.00,CLR,,0.00,WeatherDisplay:10.37,2013-07-25 16:34:00,
2013-07-25 11:39:00,72.1,57.4,30.06,WNW,289,1.2,1.2,60,0.00,CLR,,0.00,WeatherDisplay:10.37,2013-07-25 16:39:00,
2013-07-25 11:44:00,72.4,57.7,30.06,WNW,288,1.2,1.2,60,0.00,CLR,,0.00,WeatherDisplay:10.37,2013-07-25 16:44:00,
2013-07-25 11:49:00,72.9,58.2,30.07,WSW,248,5.8,5.8,60,0.00,CLR,,0.00,WeatherDisplay:10.37,2013-07-25 16:49:00,
2013-07-25 11:54:00,73.3,58.1,30.07,SW,230,4.6,4.6,59,0.00,CLR,,0.00,WeatherDisplay:10.37,2013-07-25 16:54:00,
2013-07-25 11:59:00,73.2,57.5,30.07,SW,230,3.5,3.5,58,0.00,CLR,,0.00,WeatherDisplay:10.37,2013-07-25 16:59:00,
2013-07-25 12:04:00,73.7,58.9,30.07,SW,226,5.8,5.8,60,0.00,CLR,,0.00,WeatherDisplay:10.37,2013-07-25 17:04:00,
2013-07-25 12:09:00,73.5,58.3,30.06,SSW,211,4.6,4.6,59,0.00,CLR,,0.00,WeatherDisplay:10.37,2013-07-25 17:09:00,
2013-07-25 12:14:00,73.2,58.0,30.06,SW,233,4.6,4.6,59,0.00,CLR,,0.00,WeatherDisplay:10.37,2013-07-25 17:14:00,
2013-07-25 12:19:00,73.9,58.2,30.06,SW,236,3.5,3.5,58,0.00,CLR,,0.00,WeatherDisplay:10.37,2013-07-25 17:19:00,
2013-07-25 12:24:00,74.5,57.8,30.06,WNW,288,6.9,6.9,56,0.00,CLR,,0.00,WeatherDisplay:10.37,2013-07-25 17:24:00,
2013-07-25 12:29:00,74.0,57.3,30.06,WNW,291,6.9,6.9,56,0.00,CLR,,0.00,WeatherDisplay:10.37,2013-07-25 17:29:00,
2013-07-25 12:34:00,73.8,57.6,30.06,WNW,292,3.5,3.5,57,0.00,CLR,,0.00,WeatherDisplay:10.37,2013-07-25 17:34:00,
2013-07-25 12:39:00,73.5,57.3,30.05,NW,312,3.5,3.5,57,0.00,CLR,,0.00,WeatherDisplay:10.37,2013-07-25 17:39:00,
2013-07-25 12:44:00,73.4,57.2,30.06,NW,313,2.3,2.3,57,0.00,CLR,,0.00,WeatherDisplay:10.37,2013-07-25 17:44:00,
2013-07-25 12:49:00,73.5,57.3,30.06,WNW,292,8.1,8.1,57,0.00,CLR,,0.00,WeatherDisplay:10.37,2013-07-25 17:49:00,
2013-07-25 12:54:00,73.5,57.3,30.06,WNW,295,5.8,5.8,57,0.00,CLR,,0.00,WeatherDisplay:10.37,2013-07-25 17:54:00,
2013-07-25 12:59:00,74.0,57.3,30.06,WNW,290,4.6,4.6,56,0.00,CLR,,0.00,WeatherDisplay:10.37,2013-07-25 17:59:00,
2013-07-25 13:04:00,74.3,58.6,30.06,SW,226,5.8,5.8,58,0.00,CLR,,0.00,WeatherDisplay:10.37,2013-07-25 18:04:00,
2013-07-25 13:09:00,75.1,58.3,30.06,SW,227,5.8,5.8,56,0.00,CLR,,0.00,WeatherDisplay:10.37,2013-07-25 18:09:00,
2013-07-25 13:14:00,75.7,58.4,30.05,SSW,210,6.9,6.9,55,0.00,CLR,,0.00,WeatherDisplay:10.37,2013-07-25 18:14:00,
2013-07-25 13:19:00,75.3,57.5,30.06,SSW,211,5.8,5.8,54,0.00,CLR,,0.00,WeatherDisplay:10.37,2013-07-25 18:19:00,
2013-07-25 13:24:00,75.4,57.6,30.05,SSW,198,4.6,4.6,54,0.00,CLR,,0.00,WeatherDisplay:10.37,2013-07-25 18:24:00,
2013-07-25 13:29:00,75.3,57.5,30.05,South,180,9.2,9.2,54,0.00,CLR,,0.00,WeatherDisplay:10.37,2013-07-25 18:29:00,
2013-07-25 13:34:00,74.9,57.1,30.05,SSW,197,8.1,8.1,54,0.00,CLR,,0.00,WeatherDisplay:10.37,2013-07-25 18:34:00,
2013-07-25 13:39:00,74.1,56.9,30.05,South,190,4.6,4.6,55,0.00,CLR,,0.00,WeatherDisplay:10.37,2013-07-25 18:39:00,
2013-07-25 13:44:00,74.1,57.4,30.05,South,190,2.3,0.0,56,0.00,CLR,,0.00,WeatherDisplay:10.37,2013-07-25 18:44:00,
2013-07-25 13:49:00,74.7,58.0,30.05,East,93,6.9,6.9,56,0.00,CLR,,0.00,WeatherDisplay:10.37,2013-07-25 18:49:00,
2013-07-25 13:54:00,75.2,57.9,30.05,NE,53,3.5,3.5,55,0.00,CLR,,0.00,WeatherDisplay:10.37,2013-07-25 18:54:00,
2013-07-25 13:59:00,75.7,57.9,30.04,East,90,5.0,5.0,54,0.00,CLR,,0.00,WeatherDisplay:10.37,2013-07-25 18:59:00,
2013-07-25 14:04:00,75.6,57.8,30.05,ENE,78,2.3,2.3,54,0.00,CLR,,0.00,WeatherDisplay:10.37,2013-07-25 19:04:00,
2013-07-25 14:09:00,75.5,57.7,30.05,East,87,4.6,4.6,54,0.00,CLR,,0.00,WeatherDisplay:10.37,2013-07-25 19:09:00,
2013-07-25 14:14:00,75.5,57.7,30.05,East,88,3.5,3.5,54,0.00,CLR,,0.00,WeatherDisplay:10.37,2013-07-25 19:14:00,
2013-07-25 14:19:00,75.4,57.6,30.05,East,88,1.0,0.0,54,0.00,CLR,,0.00,WeatherDisplay:10.37,2013-07-25 19:19:00,
2013-07-25 14:24:00,75.9,57.5,30.05,East,83,3.5,3.5,53,0.00,CLR,,0.00,WeatherDisplay:10.37,2013-07-25 19:24:00,
2013-07-25 14:29:00,76.3,57.4,30.05,ENE,78,3.5,3.5,52,0.00,CLR,,0.00,WeatherDisplay:10.37,2013-07-25 19:29:00,
2013-07-25 14:34:00,76.9,57.9,30.05,East,82,3.5,3.5,52,0.00,CLR,,0.00,WeatherDisplay:10.37,2013-07-25 19:34:00,
2013-07-25 14:39:00,77.1,58.6,30.05,SE,135,5.0,5.0,53,0.00,CLR,,0.00,WeatherDisplay:10.37,2013-07-25 19:39:00,
2013-07-25 14:44:00,77.5,59.0,30.05,SE,136,0.0,0.5,53,0.00,CLR,,0.00,WeatherDisplay:10.37,2013-07-25 19:44:00,
2013-07-25 14:49:00,78.0,58.4,30.05,WNW,297,11.5,11.5,51,0.00,CLR,,0.00,WeatherDisplay:10.37,2013-07-25 19:49:00,
2013-07-25 14:54:00,76.7,58.3,30.05,West,273,7.0,7.0,53,0.00,CLR,,0.00,WeatherDisplay:10.37,2013-07-25 19:54:00,
2013-07-25 14:59:00,76.7,58.3,30.04,WNW,286,7.0,7.0,53,0.00,CLR,,0.00,WeatherDisplay:10.37,2013-07-25 19:59:00,
2013-07-25 15:04:00,76.7,58.3,30.04,WNW,290,3.5,3.5,53,0.00,CLR,,0.00,WeatherDisplay:10.37,2013-07-25 20:04:00,
2013-07-25 15:09:00,77.3,58.3,30.04,West,271,4.6,4.6,52,0.00,CLR,,0.00,WeatherDisplay:10.37,2013-07-25 20:09:00,
2013-07-25 15:14:00,77.8,58.2,30.04,West,273,4.6,4.6,51,0.00,CLR,,0.00,WeatherDisplay:10.37,2013-07-25 20:14:00,
2013-07-25 15:19:00,77.8,58.8,30.04,West,267,3.5,3.5,52,0.00,CLR,,0.00,WeatherDisplay:10.37,2013-07-25 20:19:00,
2013-07-25 15:24:00,78.0,58.4,30.04,West,263,3.5,3.5,51,0.00,CLR,,0.00,WeatherDisplay:10.37,2013-07-25 20:24:00,
2013-07-25 15:29:00,78.3,58.7,30.03,NW,304,5.0,5.0,51,0.00,CLR,,0.00,WeatherDisplay:10.37,2013-07-25 20:29:00,
2013-07-25 15:34:00,78.0,58.4,30.03,NE,51,6.0,6.0,51,0.00,CLR,,0.00,WeatherDisplay:10.37,2013-07-25 20:34:00,
2013-07-25 15:39:00,76.9,57.4,30.03,NNE,22,8.1,8.1,51,0.00,CLR,,0.00,WeatherDisplay:10.37,2013-07-25 20:39:00,
2013-07-25 15:44:00,76.1,57.7,30.03,NNE,22,4.6,4.6,53,0.00,CLR,,0.00,WeatherDisplay:10.37,2013-07-25 20:44:00,
2013-07-25 15:49:00,75.9,58.1,30.03,NE,55,9.2,9.2,54,0.00,CLR,,0.00,WeatherDisplay:10.37,2013-07-25 20:49:00,
2013-07-25 15:54:00,75.8,57.4,30.03,ENE,59,3.5,3.5,53,0.00,CLR,,0.00,WeatherDisplay:10.37,2013-07-25 20:54:00,
2013-07-25 15:59:00,76.0,58.2,30.02,ENE,64,4.6,4.6,54,0.00,CLR,,0.00,WeatherDisplay:10.37,2013-07-25 20:59:00,
2013-07-25 16:04:00,76.0,58.2,30.02,East,101,6.9,6.9,54,0.00,CLR,,0.00,WeatherDisplay:10.37,2013-07-25 21:04:00,
2013-07-25 16:09:00,76.0,58.2,30.02,ESE,117,4.6,4.6,54,0.00,CLR,,0.00,WeatherDisplay:10.37,2013-07-25 21:09:00,
2013-07-25 16:14:00,76.5,58.1,30.03,ESE,116,3.5,3.5,53,0.00,CLR,,0.00,WeatherDisplay:10.37,2013-07-25 21:14:00,
2013-07-25 16:19:00,77.2,58.7,30.03,ESE,117,3.5,3.5,53,0.00,CLR,,0.00,WeatherDisplay:10.37,2013-07-25 21:19:00,
2013-07-25 16:24:00,77.2,58.7,30.02,SE,128,4.0,4.0,53,0.00,CLR,,0.00,WeatherDisplay:10.37,2013-07-25 21:24:00,
2013-07-25 16:29:00,76.9,58.5,30.03,SE,133,2.3,2.3,53,0.00,CLR,,0.00,WeatherDisplay:10.37,2013-07-25 21:29:00,
2013-07-25 16:34:00,77.0,58.6,30.03,SE,128,4.0,4.0,53,0.00,CLR,,0.00,WeatherDisplay:10.37,2013-07-25 21:34:00,
2013-07-25 16:39:00,77.2,58.7,30.02,ESE,107,5.8,5.8,53,0.00,CLR,,0.00,WeatherDisplay:10.37,2013-07-25 21:39:00,
2013-07-25 16:44:00,77.8,58.8,30.03,ESE,107,3.5,3.5,52,0.00,CLR,,0.00,WeatherDisplay:10.37,2013-07-25 21:44:00,
2013-07-25 16:49:00,78.6,59.0,30.02,ESE,102,5.0,5.0,51,0.00,CLR,,0.00,WeatherDisplay:10.37,2013-07-25 21:49:00,
2013-07-25 16:54:00,77.8,58.2,30.02,ENE,69,5.0,5.0,51,0.00,CLR,,0.00,WeatherDisplay:10.37,2013-07-25 21:54:00,
2013-07-25 16:59:00,76.9,57.9,30.02,ENE,68,3.5,3.5,52,0.00,CLR,,0.00,WeatherDisplay:10.37,2013-07-25 21:59:00,
2013-07-25 17:04:00,76.7,58.3,30.02,ENE,69,2.3,2.3,53,0.00,CLR,,0.00,WeatherDisplay:10.37,2013-07-25 22:04:00,
2013-07-25 17:09:00,76.6,59.2,30.02,ENE,77,3.5,3.5,55,0.00,CLR,,0.00,WeatherDisplay:10.37,2013-07-25 22:09:00,
2013-07-25 17:14:00,76.5,58.6,30.02,SSE,160,8.1,8.1,54,0.00,CLR,,0.00,WeatherDisplay:10.37,2013-07-25 22:14:00,
2013-07-25 17:19:00,76.3,59.4,30.02,South,170,8.1,8.1,56,0.00,CLR,,0.00,WeatherDisplay:10.37,2013-07-25 22:19:00,
2013-07-25 17:24:00,76.3,58.9,30.02,SE,142,4.6,4.6,55,0.00,CLR,,0.00,WeatherDisplay:10.37,2013-07-25 22:24:00,
2013-07-25 17:29:00,76.5,59.1,30.01,SE,136,9.2,9.2,55,0.00,CLR,,0.00,WeatherDisplay:10.37,2013-07-25 22:29:00,
2013-07-25 17:34:00,76.9,59.0,30.01,SE,131,4.0,4.0,54,0.00,CLR,,0.00,WeatherDisplay:10.37,2013-07-25 22:34:00,
2013-07-25 17:39:00,76.9,59.0,30.01,SE,136,8.0,8.0,54,0.00,CLR,,0.00,WeatherDisplay:10.37,2013-07-25 22:39:00,
2013-07-25 17:44:00,76.5,58.6,30.01,SE,131,3.5,3.5,54,0.00,CLR,,0.00,WeatherDisplay:10.37,2013-07-25 22:44:00,
2013-07-25 17:49:00,76.5,58.6,30.01,SE,131,5.8,5.8,54,0.00,CLR,,0.00,WeatherDisplay:10.37,2013-07-25 22:49:00,
2013-07-25 17:54:00,76.2,58.9,30.01,South,173,9.2,9.2,55,0.00,CLR,,0.00,WeatherDisplay:10.37,2013-07-25 22:54:00,
2013-07-25 17:59:00,75.8,58.0,30.01,SE,144,6.9,6.9,54,0.00,CLR,,0.00,WeatherDisplay:10.37,2013-07-25 22:59:00,
2013-07-25 18:04:00,75.6,58.3,30.01,SE,143,6.9,6.9,55,0.00,CLR,,0.00,WeatherDisplay:10.37,2013-07-25 23:04:00,
2013-07-25 18:09:00,75.4,58.1,30.01,SSE,151,4.6,4.6,55,0.00,CLR,,0.00,WeatherDisplay:10.37,2013-07-25 23:09:00,
2013-07-25 18:14:00,75.8,58.5,30.02,SSE,150,4.6,4.6,55,0.00,CLR,,0.00,WeatherDisplay:10.37,2013-07-25 23:14:00,
2013-07-25 18:19:00,75.7,58.9,30.02,SSE,150,5.8,5.8,56,0.00,CLR,,0.00,WeatherDisplay:10.37,2013-07-25 23:19:00,
2013-07-25 18:24:00,75.6,58.8,30.02,SSE,150,6.9,6.9,56,0.00,CLR,,0.00,WeatherDisplay:10.37,2013-07-25 23:24:00,
2013-07-25 18:29:00,75.4,58.6,30.02,SSE,152,4.6,4.6,56,0.00,CLR,,0.00,WeatherDisplay:10.37,2013-07-25 23:29:00,
2013-07-25 18:34:00,75.4,59.1,30.02,SSE,153,4.0,4.0,57,0.00,CLR,,0.00,WeatherDisplay:10.37,2013-07-25 23:34:00,
2013-07-25 18:39:00,75.4,58.6,30.02,SSE,161,6.0,6.0,56,0.00,CLR,,0.00,WeatherDisplay:10.37,2013-07-25 23:39:00,
2013-07-25 18:44:00,75.1,58.8,30.02,SSE,156,4.6,4.6,57,0.00,CLR,,0.00,WeatherDisplay:10.37,2013-07-25 23:44:00,
2013-07-25 18:49:00,75.0,58.7,30.02,SSE,153,5.0,5.0,57,0.00,CLR,,0.00,WeatherDisplay:10.37,2013-07-25 23:49:00,
2013-07-25 18:54:00,74.9,58.6,30.02,SSE,155,4.6,4.6,57,0.00,CLR,,0.00,WeatherDisplay:10.37,2013-07-25 23:54:00,
2013-07-25 18:59:00,75.0,58.7,30.02,SSE,153,4.0,4.0,57,0.00,CLR,,0.00,WeatherDisplay:10.37,2013-07-25 23:59:00,
2013-07-25 19:04:00,74.9,58.6,30.02,SSE,154,4.0,4.3,57,0.00,CLR,,0.00,WeatherDisplay:10.37,2013-07-26 00:04:00,
2013-07-25 19:09:00,74.8,59.5,30.02,SSE,154,3.5,3.5,59,0.00,CLR,,0.00,WeatherDisplay:10.37,2013-07-26 00:09:00,
2013-07-25 19:14:00,74.8,59.5,30.02,SSE,154,3.5,3.5,59,0.00,CLR,,0.00,WeatherDisplay:10.37,2013-07-26 00:14:00,
2013-07-25 19:19:00,74.8,59.0,30.03,SSE,153,6.0,6.0,58,0.00,CLR,,0.00,WeatherDisplay:10.37,2013-07-26 00:19:00,
2013-07-25 19:24:00,74.7,58.9,30.03,SSE,153,3.5,3.5,58,0.00,CLR,,0.00,WeatherDisplay:10.37,2013-07-26 00:24:00,
2013-07-25 19:29:00,74.6,58.8,30.03,SSE,153,5.8,5.8,58,0.00,CLR,,0.00,WeatherDisplay:10.37,2013-07-26 00:29:00,
2013-07-25 19:34:00,74.4,59.1,30.02,SSE,153,4.6,4.6,59,0.00,CLR,,0.00,WeatherDisplay:10.37,2013-07-26 00:34:00,
2013-07-25 19:39:00,74.2,59.9,30.02,SSE,153,4.6,4.6,61,0.00,CLR,,0.00,WeatherDisplay:10.37,2013-07-26 00:39:00,
2013-07-25 19:44:00,74.0,59.7,30.02,SSE,153,3.5,4.0,61,0.00,CLR,,0.00,WeatherDisplay:10.37,2013-07-26 00:44:00,
2013-07-25 19:49:00,73.8,60.0,30.02,SSE,153,3.5,3.5,62,0.00,CLR,,0.00,WeatherDisplay:10.37,2013-07-26 00:49:00,
2013-07-25 19:54:00,73.6,59.8,30.02,SSE,153,3.5,3.5,62,0.00,CLR,,0.00,WeatherDisplay:10.37,2013-07-26 00:54:00,
2013-07-25 19:59:00,73.5,59.7,30.02,SSE,153,3.5,3.6,62,0.00,CLR,,0.00,WeatherDisplay:10.37,2013-07-26 00:59:00,
2013-07-25 20:04:00,73.1,59.8,30.02,SSE,153,3.5,3.5,63,0.00,CLR,,0.00,WeatherDisplay:10.37,2013-07-26 01:04:00,
2013-07-25 20:09:00,72.8,59.9,30.02,SSE,153,3.5,3.5,64,0.00,CLR,,0.00,WeatherDisplay:10.37,2013-07-26 01:09:00,
2013-07-25 20:14:00,72.5,59.6,30.02,SSE,157,3.5,4.2,64,0.00,CLR,,0.00,WeatherDisplay:10.37,2013-07-26 01:14:00,
2013-07-25 20:19:00,72.4,60.0,30.02,SSE,158,4.6,4.6,65,0.00,CLR,,0.00,WeatherDisplay:10.37,2013-07-26 01:19:00,
2013-07-25 20:24:00,72.2,59.8,30.02,SSE,158,4.6,4.6,65,0.00,CLR,,0.00,WeatherDisplay:10.37,2013-07-26 01:24:00,
2013-07-25 20:29:00,72.0,59.2,30.01,SSE,158,3.5,3.5,64,0.00,CLR,,0.00,WeatherDisplay:10.37,2013-07-26 01:29:00,
2013-07-25 20:34:00,71.8,59.4,30.02,SSE,158,3.5,3.5,65,0.00,CLR,,0.00,WeatherDisplay:10.37,2013-07-26 01:34:00,
2013-07-25 20:39:00,71.7,59.7,30.01,SSE,157,3.5,3.5,66,0.00,CLR,,0.00,WeatherDisplay:10.37,2013-07-26 01:39:00,
2013-07-25 20:44:00,71.4,59.9,30.02,SSE,157,3.5,3.5,67,0.00,CLR,,0.00,WeatherDisplay:10.37,2013-07-26 01:44:00,
2013-07-25 20:49:00,71.0,59.9,30.02,SSE,158,3.5,3.5,68,0.00,CLR,,0.00,WeatherDisplay:10.37,2013-07-26 01:49:00,
2013-07-25 20:54:00,70.6,59.9,30.02,SSE,158,2.3,0.0,69,0.00,CLR,,0.00,WeatherDisplay:10.37,2013-07-26 01:54:00,
2013-07-25 20:59:00,70.4,60.1,30.03,SSE,158,1.2,1.2,70,0.00,CLR,,0.00,WeatherDisplay:10.37,2013-07-26 01:59:00,
2013-07-25 21:04:00,70.1,60.7,30.02,SSE,158,1.2,1.2,72,0.00,CLR,,0.00,WeatherDisplay:10.37,2013-07-26 02:04:00,
2013-07-25 21:09:00,69.8,60.8,30.02,SSE,158,3.5,3.5,73,0.00,CLR,,0.00,WeatherDisplay:10.37,2013-07-26 02:09:00,
2013-07-25 21:14:00,69.5,60.8,30.02,SSE,158,1.2,1.2,74,0.00,CLR,,0.00,WeatherDisplay:10.37,2013-07-26 02:14:00,
2013-07-25 21:19:00,69.4,61.1,30.03,SSE,158,0.0,0.0,75,0.00,CLR,,0.00,WeatherDisplay:10.37,2013-07-26 02:19:00,
2013-07-25 21:24:00,69.2,61.3,30.03,SSE,157,3.0,3.0,76,0.00,CLR,,0.00,WeatherDisplay:10.37,2013-07-26 02:24:00,
2013-07-25 21:29:00,68.9,60.3,30.03,SSE,158,3.5,3.5,74,0.00,CLR,,0.00,WeatherDisplay:10.37,2013-07-26 02:29:00,
2013-07-25 21:34:00,68.9,60.3,30.03,SSE,163,4.6,4.6,74,0.00,CLR,,0.00,WeatherDisplay:10.37,2013-07-26 02:34:00,
2013-07-25 21:39:00,68.9,60.3,30.04,SSE,164,3.5,3.5,74,0.00,CLR,,0.00,WeatherDisplay:10.37,2013-07-26 02:39:00,
2013-07-25 21:44:00,68.8,60.2,30.04,SSE,164,2.3,2.3,74,0.00,CLR,,0.00,WeatherDisplay:10.37,2013-07-26 02:44:00,
2013-07-25 21:49:00,68.6,60.7,30.04,SSE,163,1.2,1.2,76,0.00,CLR,,0.00,WeatherDisplay:10.37,2013-07-26 02:49:00,
2013-07-25 21:54:00,68.5,60.6,30.04,SSE,164,0.0,0.0,76,0.00,CLR,,0.00,WeatherDisplay:10.37,2013-07-26 02:54:00,
2013-07-25 21:59:00,68.3,60.4,30.04,SSE,164,1.2,0.0,76,0.00,CLR,,0.00,WeatherDisplay:10.37,2013-07-26 02:59:00,
2013-07-25 22:04:00,68.2,60.3,30.04,SSE,164,0.0,0.0,76,0.00,CLR,,0.00,WeatherDisplay:10.37,2013-07-26 03:04:00,
2013-07-25 22:09:00,68.2,60.3,30.04,SSE,164,1.2,0.0,76,0.00,CLR,,0.00,WeatherDisplay:10.37,2013-07-26 03:09:00,
2013-07-25 22:14:00,68.2,60.7,30.04,SSE,164,1.2,1.2,77,0.00,CLR,,0.00,WeatherDisplay:10.37,2013-07-26 03:14:00,
2013-07-25 22:19:00,68.1,61.0,30.04,SSE,164,1.2,1.2,78,0.00,CLR,,0.00,WeatherDisplay:10.37,2013-07-26 03:19:00,
2013-07-25 22:24:00,67.9,61.1,30.04,SSE,164,2.3,2.3,79,0.00,CLR,,0.00,WeatherDisplay:10.37,2013-07-26 03:24:00,
2013-07-25 22:29:00,67.5,60.8,30.04,SSE,164,2.3,2.3,79,0.00,CLR,,0.00,WeatherDisplay:10.37,2013-07-26 03:29:00,
2013-07-25 22:34:00,67.3,60.9,30.04,SSE,164,1.2,1.2,80,0.00,CLR,,0.00,WeatherDisplay:10.37,2013-07-26 03:34:00,
2013-07-25 22:39:00,67.1,60.7,30.03,SSE,164,0.0,0.0,80,0.00,CLR,,0.00,WeatherDisplay:10.37,2013-07-26 03:39:00,
2013-07-25 22:44:00,67.0,61.0,30.03,SSE,164,2.3,2.3,81,0.00,CLR,,0.00,WeatherDisplay:10.37,2013-07-26 03:44:00,
2013-07-25 22:49:00,66.9,60.5,30.03,SSE,163,0.0,0.0,80,0.00,CLR,,0.00,WeatherDisplay:10.37,2013-07-26 03:49:00,
2013-07-25 22:54:00,66.7,60.3,30.03,SSE,163,0.0,0.0,80,0.00,CLR,,0.00,WeatherDisplay:10.37,2013-07-26 03:54:00,
2013-07-25 22:59:00,66.6,60.2,30.03,SSE,164,0.0,0.0,80,0.00,CLR,,0.00,WeatherDisplay:10.37,2013-07-26 03:59:00,
2013-07-25 23:01:00,66.6,60.2,30.03,SSE,164,0.0,0.0,80,0.00,CLR,,0.00,WeatherDisplay:10.37,2013-07-26 04:01:00,
2013-07-25 23:02:00,66.6,60.2,30.03,SSE,163,0.0,0.0,80,0.00,CLR,,0.00,WeatherDisplay:10.37,2013-07-26 04:02:00,
2013-07-25 23:07:00,66.5,60.1,30.03,SSE,164,0.0,0.0,80,0.00,CLR,,0.00,WeatherDisplay:10.37,2013-07-26 04:07:00,
2013-07-25 23:12:00,66.3,59.9,30.03,SSE,164,0.0,0.0,80,0.00,CLR,,0.00,WeatherDisplay:10.37,2013-07-26 04:12:00,
2013-07-25 23:17:00,66.3,59.9,30.03,SSE,164,0.0,0.0,80,0.00,CLR,,0.00,WeatherDisplay:10.37,2013-07-26 04:17:00,
2013-07-25 23:23:00,66.6,60.2,30.03,SSE,163,0.0,0.0,80,0.00,CLR,,0.00,WeatherDisplay:10.37,2013-07-26 04:23:00,
2013-07-25 23:28:00,66.8,60.8,30.03,SSE,164,0.0,0.0,81,0.00,CLR,,0.00,WeatherDisplay:10.37,2013-07-26 04:28:00,
2013-07-25 23:33:00,66.8,61.1,30.03,SSE,164,0.0,0.0,82,0.00,CLR,,0.00,WeatherDisplay:10.37,2013-07-26 04:33:00,
2013-07-25 23:38:00,66.6,61.3,30.03,SSE,163,0.0,0.0,83,0.00,CLR,,0.00,WeatherDisplay:10.37,2013-07-26 04:38:00,
2013-07-25 23:43:00,66.3,61.0,30.03,SSE,165,0.0,0.0,83,0.00,CLR,,0.00,WeatherDisplay:10.37,2013-07-26 04:43:00,
2013-07-25 23:48:00,66.0,60.7,30.03,SSE,165,0.0,0.0,83,0.00,CLR,,0.00,WeatherDisplay:10.37,2013-07-26 04:48:00,
2013-07-25 23:53:00,65.8,60.8,30.03,SSE,164,0.0,0.1,84,0.00,CLR,,0.00,WeatherDisplay:10.37,2013-07-26 04:53:00,
2013-07-25 23:58:00,65.7,61.1,30.03,SSE,164,0.0,0.0,85,0.00,CLR,,0.00,WeatherDisplay:10.37,2013-07-26 04:58:00,